User: anonymous
Location: Vancouver
(49.2500°N, 123.1330°W)
Time: 22:22:12
(UTC-07:00)
Language:

BREEZE-M DEB (TANK) - Orbit

View from above orbital plane
View from above orbital plane
View from above satellite
View from above satellite

Ground track
Ground track

The orbit data is extracted from the following two-line orbital elements,

1 27821U 03024B   14292.41460683  .00008404  00000-0  10258-2 0  5113
2 27821 049.5863 057.0889 5004850 017.4379 007.5130 05.63534631224973
Epoch (UTC): 19 October 2014 09:57:02
Eccentricity: 0.5004850
inclination: 49.5863°
perigee height: 285 km
apogee height: 13636 km
right ascension of ascending node: 57.0889°
argument of perigee: 17.4379°
revolutions per day: 5.63534631
mean anomaly at epoch: 7.5130°
orbit number at epoch: 22497

The dashed part of the orbit path shows where the satellite is in the earth's shadow,  

DLR